Etusivu
METAR-TAF:

METAR-TAF

Lentoasemat :

Eureka, Nevada, Yhdysvallat

Leveyspiiri: 39-36-05N, Pituuspiiri: 116-00-20W, korkeus merenpinnasta: 1812 m

Tämänhetkinen sää

Tämä raportti tehtiin 19 minuuttia sitten, kello 13.53 UTC
Tuuli 4 kn etelästä
Lämpötila -13°C
Kosteus 72%
Ilmanpaine 1022 hPa

METAR: KP68 181353Z AUTO 17004KT M13/M17 A3017 RMK AO1 SLP259 T11331167

Aika: 06:12 (14:12 UTC)


TAF: puuttuu

Säähavainnot ja -ennusteet yli 4000 lentoasemalta (METAR- ja TAF-raportit).

Käytössä olevat sääasemat on merkitty karttaan keltaisilla ja punaisilla pisteillä.

Aseta hiiri pisteen päälle nähdäksesi sääaseman nimen.

Klikkaa sitten nähdäksesi säähavainnot ja -ennusteet.

Kartan vaihtaminen: klikkaa mustalla rastilla varustettuja vihreitä pisteitä, niin voit zoomata sisään; viivalla varustettua vihreää pistettä, niin voit zoomata ulos tai vihreitä nuolia, niin pääset viereisille kartoille.


METAR-TAF: